This demonstration page uses our WeatherBlox Daily Observations layout. Learn more.

Left ArrowRight Arrow

39.08367, -84.50855

Hourly Observations for August 21, 2020

Temp ( °F °C ) Dew Point ( °F °C ) Humidity (%) Winds ( mph kmh ) Pressure ( in mb ) Visibility ( mi km ) Precip ( " mm )
12:53 am 00:53 Clear 62 16.7 60 15.6 93 93 N N/A 29.96 1014 10 16 N/A
1:53 am 01:53 Clear 62 16.7 60 15.6 93 93 N N/A 29.95 1014 10 16 N/A
2:53 am 02:53 Clear 61 16.1 59 15 93 93 N N/A 29.94 1014 10 16 N/A
3:53 am 03:53 Clear 61 16.1 59 15 93 93 N N/A 29.94 1014 10 16 N/A
4:53 am 04:53 Clear 61 16.1 59 15 93 93 N N/A 29.96 1014 10 16 N/A
5:53 am 05:53 Clear 62 16.7 60 15.6 93 93 N N/A 29.97 1015 10 16 N/A
6:53 am 06:53 Clear 61 16.1 59 15 93 93 ENE 3 6 29.97 1015 10 16 N/A
7:53 am 07:53 Sunny 62 16.7 60 15.6 93 93 N N/A 29.98 1015 10 16 N/A
8:53 am 08:53 Sunny 66 18.9 60 15.6 81 81 NE 5 7 29.98 1015 10 16 N/A
9:53 am 09:53 Sunny 69 20.6 59 15 70 70 NE 5 7 29.99 1016 10 16 N/A
10:53 am 10:53 Sunny 73 22.8 60 15.6 64 64 NE 5 7 29.99 1016 10 16 N/A
11:53 am 11:53 Sunny 77 25 60 15.6 56 56 NE 7 11 29.98 1015 10 16 N/A
12:53 pm 12:53 Sunny 79 26.1 61 16.1 54 54 NNE 6 9 29.96 1015 10 16 N/A
1:53 pm 13:53 Sunny 81 27.2 62 16.7 53 53 VRB 7 11 29.96 1014 10 16 N/A
2:53 pm 14:53 Sunny 82 27.8 63 17.2 53 53 VRB 5 7 29.93 1014 10 16 N/A
3:53 pm 15:53 Sunny 83 28.3 64 17.8 53 53 NE 3 6 29.92 1013 10 16 N/A
4:53 pm 16:53 Mostly Sunny 84 28.9 65 18.3 53 53 NNE 5 7 29.91 1013 10 16 N/A
5:53 pm 17:53 Partly Cloudy 80 26.7 66 18.9 62 62 SSE 6 9 29.91 1013 10 16 N/A
6:53 pm 18:53 Sunny 79 26.1 69 20.6 72 72 SSE 5 7 29.91 1013 10 16 N/A
7:53 pm 19:53 Sunny 76 24.4 69 20.6 79 79 N N/A 29.92 1013 10 16 N/A
8:53 pm 20:53 Clear 73 22.8 69 20.6 87 87 SW 3 6 29.93 1013 10 16 N/A
9:53 pm 21:53 Clear 71 21.7 68 20 90 90 N N/A 29.93 1014 10 16 N/A
10:53 pm 22:53 Clear 70 21.1 68 20 93 93 N N/A 29.94 1014 10 16 N/A
11:53 pm 23:53 Clear 70 21.1 68 20 93 93 N N/A 29.94 1014 10 16 N/A

Powered by AerisWeather